Time,TemperatureF,DewpointF,PressureIn,WindDirection,WindDirectionDegrees,WindSpeedMPH,WindSpeedGustMPH,Humidity,HourlyPrecipIn,Conditions,Clouds,dailyrainin,SoftwareType,DateUTC
2013-04-15 00:00:00,35.0,28.5,30.04,ESE,106,7.0,13.0,77,0.00,,---,0.00,VWS V14.01,2013-04-15 04:00:00,
2013-04-15 00:05:00,35.0,28.5,30.03,ESE,104,10.0,14.0,77,0.00,,---,0.00,VWS V14.01,2013-04-15 04:05:00,
2013-04-15 00:10:00,34.9,28.4,30.03,ESE,112,6.0,14.0,77,0.00,,---,0.00,VWS V14.01,2013-04-15 04:10:00,
2013-04-15 00:15:00,34.8,28.6,30.03,ESE,108,6.0,14.0,78,0.00,,---,0.00,VWS V14.01,2013-04-15 04:15:00,
2013-04-15 00:20:00,34.8,28.6,30.03,ESE,121,11.0,14.0,78,0.00,,---,0.00,VWS V14.01,2013-04-15 04:20:00,
2013-04-15 00:25:00,34.8,28.6,30.03,ESE,120,9.0,15.0,78,0.00,,---,0.00,VWS V14.01,2013-04-15 04:25:00,
2013-04-15 00:30:00,34.8,28.6,30.03,ESE,108,8.0,15.0,78,0.00,,---,0.00,VWS V14.01,2013-04-15 04:30:00,
2013-04-15 00:35:00,34.8,28.6,30.02,ESE,122,11.0,15.0,78,0.00,,---,0.00,VWS V14.01,2013-04-15 04:35:00,
2013-04-15 00:40:00,34.7,28.9,30.02,SE,129,3.0,16.0,79,0.00,,---,0.00,VWS V14.01,2013-04-15 04:40:00,
2013-04-15 00:45:00,34.7,28.9,30.03,SE,130,4.0,16.0,79,0.00,,---,0.00,VWS V14.01,2013-04-15 04:45:00,
2013-04-15 00:50:00,34.7,28.9,30.03,SE,128,9.0,16.0,79,0.00,,---,0.00,VWS V14.01,2013-04-15 04:50:00,
2013-04-15 00:55:00,34.7,28.9,30.02,ESE,114,6.0,16.0,79,0.00,,---,0.00,VWS V14.01,2013-04-15 04:55:00,
2013-04-15 01:00:00,34.6,28.8,30.02,ESE,118,6.0,16.0,79,0.00,,---,0.00,VWS V14.01,2013-04-15 05:00:00,
2013-04-15 01:05:00,34.5,29.0,30.02,ESE,117,8.0,10.0,80,0.00,,---,0.00,VWS V14.01,2013-04-15 05:05:00,
2013-04-15 01:10:00,34.4,29.2,30.02,SE,135,2.0,17.0,81,0.00,,---,0.00,VWS V14.01,2013-04-15 05:10:00,
2013-04-15 01:15:00,34.3,29.1,30.02,East,100,15.0,17.0,81,0.00,,---,0.00,VWS V14.01,2013-04-15 05:15:00,
2013-04-15 01:20:00,34.3,29.1,30.02,ESE,120,5.0,17.0,81,0.00,,---,0.00,VWS V14.01,2013-04-15 05:20:00,
2013-04-15 01:25:00,34.2,29.3,30.02,ESE,115,2.0,17.0,82,0.00,,---,0.00,VWS V14.01,2013-04-15 05:25:00,
2013-04-15 01:30:00,34.1,29.2,30.02,ESE,113,9.0,17.0,82,0.00,,---,0.00,VWS V14.01,2013-04-15 05:30:00,
2013-04-15 01:35:00,34.1,29.2,30.02,East,91,6.0,12.0,82,0.00,,---,0.00,VWS V14.01,2013-04-15 05:35:00,
2013-04-15 01:40:00,34.0,29.4,30.02,ESE,118,8.0,13.0,83,0.00,,---,0.00,VWS V14.01,2013-04-15 05:40:00,
2013-04-15 01:45:00,34.0,29.4,30.02,ESE,117,3.0,15.0,83,0.00,,---,0.00,VWS V14.01,2013-04-15 05:45:00,
2013-04-15 01:50:00,33.9,29.3,30.01,ESE,111,10.0,17.0,83,0.00,,---,0.00,VWS V14.01,2013-04-15 05:50:00,
2013-04-15 01:55:00,33.9,29.6,30.01,ESE,106,10.0,17.0,84,0.00,,---,0.00,VWS V14.01,2013-04-15 05:55:00,
2013-04-15 02:00:00,33.8,29.5,30.00,ESE,102,16.0,19.0,84,0.00,,---,0.00,VWS V14.01,2013-04-15 06:00:00,
2013-04-15 02:05:00,33.8,29.5,30.00,ESE,106,10.0,16.0,84,0.00,,---,0.00,VWS V14.01,2013-04-15 06:05:00,
2013-04-15 02:10:00,33.7,29.7,29.99,SE,127,7.0,18.0,85,0.00,,---,0.00,VWS V14.01,2013-04-15 06:10:00,
2013-04-15 02:15:00,33.6,29.6,29.99,ESE,116,14.0,19.0,85,0.00,,---,0.00,VWS V14.01,2013-04-15 06:15:00,
2013-04-15 02:21:00,33.4,29.4,29.98,SE,125,13.0,21.0,85,0.00,,---,0.00,VWS V14.01,2013-04-15 06:21:00,
2013-04-15 02:26:00,33.3,29.3,29.98,ESE,110,7.0,21.0,85,0.00,,---,0.00,VWS V14.01,2013-04-15 06:26:00,
2013-04-15 02:30:00,33.2,29.2,29.98,ESE,111,13.0,21.0,85,0.00,,---,0.00,VWS V15.00,2013-04-15 06:30:00,
2013-04-15 02:31:00,33.2,29.2,29.98,ESE,113,8.0,21.0,85,0.00,,---,0.00,VWS V14.01,2013-04-15 06:31:00,
2013-04-15 02:36:00,33.0,29.0,29.98,ESE,113,7.0,16.0,85,0.00,,---,0.00,VWS V14.01,2013-04-15 06:36:00,
2013-04-15 02:41:00,33.0,29.0,29.98,ESE,105,12.0,18.0,85,0.00,,---,0.00,VWS V14.01,2013-04-15 06:41:00,
2013-04-15 02:46:00,32.9,28.9,29.98,ESE,113,13.0,18.0,85,0.00,,---,0.00,VWS V14.01,2013-04-15 06:46:00,
2013-04-15 02:51:00,32.9,29.2,29.98,East,92,11.0,25.0,86,0.00,,---,0.00,VWS V14.01,2013-04-15 06:51:00,
2013-04-15 02:56:00,32.8,29.1,29.97,ESE,112,16.0,25.0,86,0.00,,---,0.00,VWS V14.01,2013-04-15 06:56:00,
2013-04-15 03:00:00,32.7,29.3,29.97,East,96,20.0,25.0,87,0.00,,---,0.00,VWS V15.00,2013-04-15 07:00:00,
2013-04-15 03:01:00,32.6,29.2,29.97,ESE,104,10.0,25.0,87,0.00,,---,0.00,VWS V14.01,2013-04-15 07:01:00,
2013-04-15 03:30:00,32.8,29.6,29.95,ESE,112,9.0,26.0,88,0.00,,---,0.00,VWS V15.00,2013-04-15 07:30:00,
2013-04-15 03:41:00,32.9,29.7,29.94,SE,134,13.0,23.0,88,0.00,,---,0.00,VWS V14.01,2013-04-15 07:41:00,
2013-04-15 03:42:00,32.9,29.7,29.94,ESE,116,15.0,23.0,88,0.00,,---,0.00,VWS V14.01,2013-04-15 07:42:00,
2013-04-15 03:47:00,32.9,29.7,29.94,ESE,119,19.0,23.0,88,0.00,,---,0.00,VWS V14.01,2013-04-15 07:47:00,
2013-04-15 03:48:00,32.9,29.7,29.94,ESE,106,10.0,24.0,88,0.00,,---,0.00,VWS V14.01,2013-04-15 07:48:00,
2013-04-15 03:50:00,32.9,29.5,29.93,SE,130,6.0,24.0,87,0.00,,---,0.00,VWS V14.01,2013-04-15 07:50:00,
2013-04-15 03:55:00,32.9,29.5,29.93,East,87,11.0,26.0,87,0.00,,---,0.00,VWS V14.01,2013-04-15 07:55:00,
2013-04-15 04:00:00,32.9,29.5,29.93,SE,132,16.0,26.0,87,0.00,,---,0.00,VWS V14.01,2013-04-15 08:00:00,
2013-04-15 04:05:00,32.9,29.5,29.93,ESE,122,20.0,21.0,87,0.00,,---,0.00,VWS V14.01,2013-04-15 08:05:00,
2013-04-15 04:10:00,32.9,29.5,29.93,ESE,109,8.0,21.0,87,0.00,,---,0.00,VWS V14.01,2013-04-15 08:10:00,
2013-04-15 04:15:00,32.9,29.5,29.93,SE,134,10.0,21.0,87,0.00,,---,0.00,VWS V14.01,2013-04-15 08:15:00,
2013-04-15 04:20:00,32.9,29.5,29.93,ESE,118,7.0,22.0,87,0.00,,---,0.00,VWS V14.01,2013-04-15 08:20:00,
2013-04-15 04:25:00,33.0,29.6,29.93,ESE,113,15.0,25.0,87,0.00,,---,0.00,VWS V14.01,2013-04-15 08:25:00,
2013-04-15 04:30:00,33.0,29.6,29.93,SSE,166,17.0,25.0,87,0.00,,---,0.00,VWS V14.01,2013-04-15 08:30:00,
2013-04-15 04:35:00,32.9,29.5,29.93,SE,133,6.0,25.0,87,0.00,,---,0.00,VWS V14.01,2013-04-15 08:35:00,
2013-04-15 04:40:00,32.9,29.5,29.92,SE,126,11.0,25.0,87,0.00,,---,0.00,VWS V14.01,2013-04-15 08:40:00,
2013-04-15 04:46:00,32.9,29.5,29.92,SE,132,14.0,26.0,87,0.00,,---,0.00,VWS V14.01,2013-04-15 08:46:00,
2013-04-15 04:51:00,32.9,29.5,29.92,SE,129,14.0,26.0,87,0.00,,---,0.00,VWS V14.01,2013-04-15 08:51:00,
2013-04-15 04:56:00,32.9,29.5,29.92,East,96,14.0,26.0,87,0.00,,---,0.00,VWS V14.01,2013-04-15 08:56:00,
2013-04-15 05:00:00,32.9,29.5,29.92,ESE,115,16.0,26.0,87,0.00,,---,0.00,VWS V15.00,2013-04-15 09:00:00,
2013-04-15 05:01:00,32.9,29.5,29.92,ENE,78,11.0,26.0,87,0.00,,---,0.00,VWS V14.01,2013-04-15 09:01:00,
2013-04-15 05:06:00,33.0,29.6,29.92,SE,127,7.0,22.0,87,0.00,,---,0.00,VWS V14.01,2013-04-15 09:06:00,
2013-04-15 05:11:00,33.0,29.6,29.92,SE,128,13.0,22.0,87,0.00,,---,0.00,VWS V14.01,2013-04-15 09:11:00,
2013-04-15 05:16:00,33.0,29.3,29.92,ESE,112,9.0,22.0,86,0.00,,---,0.00,VWS V14.01,2013-04-15 09:16:00,
2013-04-15 05:21:00,33.0,29.6,29.92,ESE,106,18.0,22.0,87,0.00,,---,0.00,VWS V14.01,2013-04-15 09:21:00,
2013-04-15 05:26:00,33.0,29.6,29.91,SE,127,7.0,22.0,87,0.00,,---,0.00,VWS V14.01,2013-04-15 09:26:00,
2013-04-15 05:30:00,33.0,29.6,29.91,ESE,119,21.0,22.0,87,0.00,,---,0.00,VWS V15.00,2013-04-15 09:30:00,
2013-04-15 05:31:00,33.0,29.6,29.91,ESE,113,19.0,21.0,87,0.00,,---,0.00,VWS V14.01,2013-04-15 09:31:00,
2013-04-15 05:36:00,33.1,29.7,29.91,ESE,117,7.0,21.0,87,0.00,,---,0.00,VWS V14.01,2013-04-15 09:36:00,
2013-04-15 05:42:00,33.1,29.7,29.91,SE,130,9.0,23.0,87,0.00,,---,0.00,VWS V14.01,2013-04-15 09:42:00,
2013-04-15 05:47:00,33.2,29.8,29.91,ESE,111,9.0,23.0,87,0.00,,---,0.00,VWS V14.01,2013-04-15 09:47:00,
2013-04-15 05:52:00,33.3,29.9,29.91,SE,137,5.0,23.0,87,0.00,,---,0.00,VWS V14.01,2013-04-15 09:52:00,
2013-04-15 05:57:00,33.4,30.0,29.91,SE,127,8.0,23.0,87,0.00,,---,0.00,VWS V14.01,2013-04-15 09:57:00,
2013-04-15 06:00:00,33.4,30.0,29.91,SE,131,4.0,23.0,87,0.00,,---,0.00,VWS V15.00,2013-04-15 10:00:00,
2013-04-15 06:02:00,33.4,30.0,29.92,SE,125,10.0,15.0,87,0.00,,---,0.00,VWS V14.01,2013-04-15 10:02:00,
2013-04-15 06:07:00,33.5,29.8,29.92,SSE,167,6.0,18.0,86,0.00,,---,0.00,VWS V14.01,2013-04-15 10:07:00,
2013-04-15 06:12:00,33.6,29.9,29.93,ESE,110,4.0,18.0,86,0.00,,---,0.00,VWS V14.01,2013-04-15 10:12:00,
2013-04-15 06:17:00,33.7,30.0,29.93,SE,146,4.0,18.0,86,0.00,,---,0.00,VWS V14.01,2013-04-15 10:17:00,
2013-04-15 06:22:00,33.7,30.0,29.92,ESE,105,10.0,18.0,86,0.00,,---,0.00,VWS V14.01,2013-04-15 10:22:00,
2013-04-15 06:27:00,33.7,30.2,29.92,ESE,116,13.0,18.0,87,0.00,,---,0.00,VWS V14.01,2013-04-15 10:27:00,
2013-04-15 06:30:00,33.6,30.4,29.93,ESE,116,7.0,18.0,88,0.02,,---,0.02,VWS V15.00,2013-04-15 10:30:00,
2013-04-15 06:32:00,33.5,30.3,29.93,ESE,121,7.0,13.0,88,0.02,,---,0.02,VWS V14.01,2013-04-15 10:32:00,
2013-04-15 06:37:00,33.3,30.7,29.93,ESE,102,12.0,16.0,90,0.04,,---,0.04,VWS V14.01,2013-04-15 10:37:00,
2013-04-15 06:42:00,33.0,30.7,29.93,ESE,114,11.0,18.0,91,0.05,,---,0.05,VWS V14.01,2013-04-15 10:42:00,
2013-04-15 06:47:00,32.9,30.6,29.92,ESE,121,9.0,18.0,91,0.05,,---,0.05,VWS V14.01,2013-04-15 10:47:00,
2013-04-15 06:52:00,32.9,30.8,29.92,SE,138,5.0,18.0,92,0.06,,---,0.06,VWS V14.01,2013-04-15 10:52:00,
2013-04-15 06:57:00,32.8,30.7,29.91,ESE,117,9.0,18.0,92,0.07,,---,0.07,VWS V14.01,2013-04-15 10:57:00,
2013-04-15 07:00:00,32.8,31.0,29.91,SSE,167,7.0,18.0,93,0.08,,---,0.08,VWS V15.00,2013-04-15 11:00:00,
2013-04-15 07:02:00,32.8,31.0,29.91,East,100,6.0,11.0,93,0.08,,---,0.08,VWS V14.01,2013-04-15 11:02:00,
2013-04-15 07:07:00,32.8,31.0,29.91,SE,134,3.0,15.0,93,0.08,,---,0.08,VWS V14.01,2013-04-15 11:07:00,
2013-04-15 07:12:00,32.9,31.1,29.91,ESE,113,7.0,15.0,93,0.08,,---,0.08,VWS V14.01,2013-04-15 11:12:00,
2013-04-15 07:17:00,33.2,31.7,29.90,ESE,113,10.0,15.0,94,0.08,,---,0.08,VWS V14.01,2013-04-15 11:17:00,
2013-04-15 07:22:00,33.5,31.7,29.90,ESE,120,10.0,15.0,93,0.08,,---,0.08,VWS V14.01,2013-04-15 11:22:00,
2013-04-15 07:27:00,33.7,31.9,29.89,East,100,13.0,15.0,93,0.08,,---,0.08,VWS V14.01,2013-04-15 11:27:00,
2013-04-15 07:30:00,34.0,32.2,29.89,SE,130,15.0,15.0,93,0.08,,---,0.08,VWS V15.00,2013-04-15 11:30:00,
2013-04-15 07:32:00,34.1,32.3,29.89,SE,141,9.0,15.0,93,0.06,,---,0.08,VWS V14.01,2013-04-15 11:32:00,
2013-04-15 07:37:00,34.4,32.3,29.88,ESE,123,9.0,17.0,92,0.06,,---,0.08,VWS V14.01,2013-04-15 11:37:00,
2013-04-15 07:42:00,34.7,32.6,29.88,SE,138,9.0,17.0,92,0.06,,---,0.08,VWS V14.01,2013-04-15 11:42:00,
2013-04-15 07:47:00,34.9,32.5,29.88,SE,139,13.0,21.0,91,0.06,,---,0.08,VWS V14.01,2013-04-15 11:47:00,
2013-04-15 07:52:00,35.3,32.9,29.88,ESE,110,6.0,21.0,91,0.06,,---,0.08,VWS V14.01,2013-04-15 11:52:00,
2013-04-15 07:58:00,35.5,32.9,29.88,ESE,118,13.0,21.0,90,0.06,,---,0.08,VWS V14.01,2013-04-15 11:58:00,
2013-04-15 08:00:00,35.7,33.1,29.88,ESE,119,9.0,21.0,90,0.06,,---,0.08,VWS V15.00,2013-04-15 12:00:00,
2013-04-15 08:03:00,35.9,33.3,29.88,SE,133,5.0,11.0,90,0.00,,---,0.08,VWS V14.01,2013-04-15 12:03:00,
2013-04-15 08:08:00,36.3,33.4,29.88,ESE,113,11.0,14.0,89,0.00,,---,0.08,VWS V14.01,2013-04-15 12:08:00,
2013-04-15 08:13:00,36.7,33.8,29.88,SE,125,9.0,17.0,89,0.00,,---,0.08,VWS V14.01,2013-04-15 12:13:00,
2013-04-15 08:18:00,36.9,33.7,29.87,ESE,122,10.0,17.0,88,0.00,,---,0.08,VWS V14.01,2013-04-15 12:18:00,
2013-04-15 08:23:00,37.1,33.9,29.87,ESE,118,10.0,17.0,88,0.00,,---,0.08,VWS V14.01,2013-04-15 12:23:00,
2013-04-15 08:28:00,37.3,33.8,29.87,ESE,118,11.0,17.0,87,0.00,,---,0.08,VWS V14.01,2013-04-15 12:28:00,
2013-04-15 08:30:00,37.2,34.0,29.87,East,99,13.0,17.0,88,0.00,,---,0.08,VWS V15.00,2013-04-15 12:30:00,
2013-04-15 08:33:00,37.2,34.0,29.87,SE,132,1.0,15.0,88,0.00,,---,0.08,VWS V14.01,2013-04-15 12:33:00,
2013-04-15 08:38:00,37.1,33.9,29.87,ESE,115,8.0,16.0,88,0.01,,---,0.09,VWS V14.01,2013-04-15 12:38:00,
2013-04-15 08:43:00,37.2,34.0,29.87,SE,137,6.0,16.0,88,0.02,,---,0.10,VWS V14.01,2013-04-15 12:43:00,
2013-04-15 08:48:00,37.3,34.1,29.86,SE,135,6.0,17.0,88,0.03,,---,0.11,VWS V14.01,2013-04-15 12:48:00,
2013-04-15 08:53:00,37.3,34.1,29.86,SE,127,7.0,17.0,88,0.04,,---,0.12,VWS V14.01,2013-04-15 12:53:00,
2013-04-15 08:58:00,37.4,34.2,29.86,SE,136,3.0,18.0,88,0.04,,---,0.12,VWS V14.01,2013-04-15 12:58:00,
2013-04-15 09:00:00,37.4,34.2,29.86,SE,141,9.0,18.0,88,0.04,,---,0.12,VWS V15.00,2013-04-15 13:00:00,
2013-04-15 09:03:00,37.5,34.3,29.86,SSE,158,5.0,14.0,88,0.04,,---,0.12,VWS V14.01,2013-04-15 13:03:00,
2013-04-15 09:08:00,37.6,34.4,29.86,SE,130,4.0,16.0,88,0.04,,---,0.12,VWS V14.01,2013-04-15 13:08:00,
2013-04-15 09:13:00,37.6,34.4,29.85,SE,129,9.0,17.0,88,0.05,,---,0.13,VWS V14.01,2013-04-15 13:13:00,
2013-04-15 09:18:00,37.5,34.3,29.85,ESE,114,11.0,17.0,88,0.05,,---,0.13,VWS V14.01,2013-04-15 13:18:00,
2013-04-15 09:23:00,37.6,34.7,29.85,SE,133,11.0,17.0,89,0.05,,---,0.13,VWS V14.01,2013-04-15 13:23:00,
2013-04-15 09:28:00,37.7,34.8,29.85,SSE,163,9.0,17.0,89,0.05,,---,0.13,VWS V14.01,2013-04-15 13:28:00,
2013-04-15 09:30:00,37.7,34.5,29.85,SE,129,7.0,18.0,88,0.05,,---,0.13,VWS V15.00,2013-04-15 13:30:00,
2013-04-15 09:33:00,37.7,34.5,29.85,SSE,150,4.0,11.0,88,0.05,,---,0.13,VWS V14.01,2013-04-15 13:33:00,
2013-04-15 09:38:00,37.7,34.8,29.84,SE,135,6.0,15.0,89,0.05,,---,0.13,VWS V14.01,2013-04-15 13:38:00,
2013-04-15 09:43:00,37.7,34.8,29.84,ESE,118,12.0,17.0,89,0.05,,---,0.13,VWS V14.01,2013-04-15 13:43:00,
2013-04-15 09:49:00,37.8,34.9,29.83,ESE,121,12.0,18.0,89,0.05,,---,0.13,VWS V14.01,2013-04-15 13:49:00,
2013-04-15 09:54:00,37.9,35.0,29.83,SSE,163,8.0,19.0,89,0.05,,---,0.13,VWS V14.01,2013-04-15 13:54:00,
2013-04-15 09:59:00,38.0,34.8,29.83,SE,131,4.0,19.0,88,0.05,,---,0.13,VWS V14.01,2013-04-15 13:59:00,
2013-04-15 10:00:00,38.1,34.9,29.83,SE,129,7.0,19.0,88,0.05,,---,0.13,VWS V15.00,2013-04-15 14:00:00,
2013-04-15 10:04:00,38.3,35.1,29.83,SE,140,5.0,18.0,88,0.02,,---,0.14,VWS V14.01,2013-04-15 14:04:00,
2013-04-15 10:09:00,38.4,34.9,29.82,SE,131,7.0,19.0,87,0.02,,---,0.14,VWS V14.01,2013-04-15 14:09:00,
2013-04-15 10:14:00,38.4,34.9,29.82,SE,135,10.0,21.0,87,0.02,,---,0.14,VWS V14.01,2013-04-15 14:14:00,
2013-04-15 10:19:00,38.4,35.2,29.82,SE,144,5.0,21.0,88,0.03,,---,0.15,VWS V14.01,2013-04-15 14:19:00,
2013-04-15 10:24:00,38.3,35.1,29.81,SE,133,5.0,21.0,88,0.04,,---,0.16,VWS V14.01,2013-04-15 14:24:00,
2013-04-15 10:29:00,38.3,35.3,29.81,South,171,7.0,21.0,89,0.07,,---,0.19,VWS V14.01,2013-04-15 14:29:00,
2013-04-15 10:30:00,38.3,35.3,29.82,SSE,150,9.0,21.0,89,0.09,,---,0.21,VWS V15.00,2013-04-15 14:30:00,
2013-04-15 10:34:00,38.2,35.5,29.80,SE,141,13.0,15.0,90,0.08,,---,0.21,VWS V14.01,2013-04-15 14:34:00,
2013-04-15 10:39:00,38.4,35.7,29.81,South,170,15.0,15.0,90,0.09,,---,0.22,VWS V14.01,2013-04-15 14:39:00,
2013-04-15 10:44:00,38.7,35.7,29.81,South,169,16.0,18.0,89,0.09,,---,0.22,VWS V14.01,2013-04-15 14:44:00,
2013-04-15 10:49:00,38.7,36.0,29.81,SSE,168,11.0,19.0,90,0.09,,---,0.22,VWS V14.01,2013-04-15 14:49:00,
2013-04-15 10:54:00,38.7,36.0,29.80,SE,127,14.0,19.0,90,0.09,,---,0.22,VWS V14.01,2013-04-15 14:54:00,
2013-04-15 10:59:00,38.7,35.7,29.80,SE,125,8.0,26.0,89,0.09,,---,0.22,VWS V14.01,2013-04-15 14:59:00,
2013-04-15 11:00:00,38.8,35.8,29.80,South,176,11.0,26.0,89,0.09,,---,0.22,VWS V15.00,2013-04-15 15:00:00,
2013-04-15 11:04:00,38.8,35.8,29.80,SSE,147,12.0,26.0,89,0.09,,---,0.22,VWS V14.01,2013-04-15 15:04:00,
2013-04-15 11:09:00,38.8,35.8,29.81,SE,135,14.0,26.0,89,0.09,,---,0.22,VWS V14.01,2013-04-15 15:09:00,
2013-04-15 11:15:00,38.7,35.7,29.80,South,183,10.0,26.0,89,0.09,,---,0.22,VWS V14.01,2013-04-15 15:15:00,
2013-04-15 11:20:00,38.7,35.7,29.80,SSE,153,4.0,26.0,89,0.09,,---,0.22,VWS V14.01,2013-04-15 15:20:00,
2013-04-15 11:25:00,38.6,35.9,29.79,SSE,148,21.0,26.0,90,0.10,,---,0.23,VWS V14.01,2013-04-15 15:25:00,
2013-04-15 11:30:00,38.7,36.0,29.79,SSE,161,9.0,26.0,90,0.10,,---,0.23,VWS V14.01,2013-04-15 15:30:00,
2013-04-15 11:35:00,38.7,36.0,29.79,ESE,118,15.0,26.0,90,0.03,,---,0.24,VWS V14.01,2013-04-15 15:35:00,
2013-04-15 11:40:00,38.6,35.9,29.79,South,175,11.0,26.0,90,0.03,,---,0.24,VWS V14.01,2013-04-15 15:40:00,
2013-04-15 11:45:00,38.7,36.0,29.79,SSE,151,6.0,26.0,90,0.03,,---,0.24,VWS V14.01,2013-04-15 15:45:00,
2013-04-15 11:50:00,38.8,36.4,29.79,SSE,154,17.0,26.0,91,0.03,,---,0.24,VWS V14.01,2013-04-15 15:50:00,
2013-04-15 11:55:00,38.8,36.1,29.79,SSE,168,17.0,30.0,90,0.04,,---,0.25,VWS V14.01,2013-04-15 15:55:00,
2013-04-15 12:00:00,38.7,36.3,29.80,South,181,15.0,30.0,91,0.05,,---,0.26,VWS V14.01,2013-04-15 16:00:00,
2013-04-15 12:05:00,38.7,36.3,29.80,South,178,11.0,22.0,91,0.05,,---,0.27,VWS V14.01,2013-04-15 16:05:00,
2013-04-15 12:10:00,38.5,36.4,29.80,SSW,203,14.0,22.0,92,0.06,,---,0.28,VWS V14.01,2013-04-15 16:10:00,
2013-04-15 12:15:00,38.4,36.3,29.80,SSE,158,20.0,22.0,92,0.06,,---,0.28,VWS V14.01,2013-04-15 16:15:00,
2013-04-15 12:20:00,38.4,36.3,29.79,South,188,26.0,26.0,92,0.06,,---,0.28,VWS V14.01,2013-04-15 16:20:00,
2013-04-15 12:25:00,38.3,36.2,29.80,SSE,166,7.0,26.0,92,0.07,,---,0.29,VWS V14.01,2013-04-15 16:25:00,
2013-04-15 12:30:00,38.3,36.2,29.80,South,182,15.0,29.0,92,0.08,,---,0.30,VWS V14.01,2013-04-15 16:30:00,
2013-04-15 12:35:00,38.2,36.1,29.79,South,172,19.0,22.0,92,0.07,,---,0.30,VWS V14.01,2013-04-15 16:35:00,
2013-04-15 12:40:00,38.1,36.3,29.79,SSE,158,7.0,22.0,93,0.08,,---,0.31,VWS V14.01,2013-04-15 16:40:00,
2013-04-15 12:45:00,38.2,36.4,29.79,SE,135,7.0,27.0,93,0.08,,---,0.31,VWS V14.01,2013-04-15 16:45:00,
2013-04-15 12:50:00,38.0,36.2,29.80,SSW,195,11.0,27.0,93,0.09,,---,0.32,VWS V14.01,2013-04-15 16:50:00,
2013-04-15 12:55:00,38.0,36.4,29.79,South,173,15.0,27.0,94,0.11,,---,0.34,VWS V14.01,2013-04-15 16:55:00,
2013-04-15 13:00:00,38.1,36.5,29.79,SSE,155,7.0,29.0,94,0.11,,---,0.34,VWS V14.01,2013-04-15 17:00:00,
2013-04-15 13:05:00,38.2,36.6,29.80,South,169,4.0,22.0,94,0.08,,---,0.34,VWS V14.01,2013-04-15 17:05:00,
2013-04-15 13:10:00,38.3,36.7,29.80,SSE,157,15.0,22.0,94,0.08,,---,0.34,VWS V14.01,2013-04-15 17:10:00,
2013-04-15 13:15:00,38.3,36.7,29.80,South,173,4.0,22.0,94,0.08,,---,0.34,VWS V14.01,2013-04-15 17:15:00,
2013-04-15 13:21:00,38.4,36.8,29.80,SSE,153,3.0,22.0,94,0.08,,---,0.34,VWS V14.01,2013-04-15 17:21:00,
2013-04-15 13:24:00,38.5,36.9,29.81,South,188,10.0,22.0,94,0.08,,---,0.34,VWS V14.01,2013-04-15 17:24:00,
2013-04-15 13:29:00,38.5,36.9,29.80,SSE,162,5.0,22.0,94,0.08,,---,0.34,VWS V14.01,2013-04-15 17:29:00,
2013-04-15 13:30:00,38.6,36.8,29.80,South,171,11.0,22.0,93,0.08,,---,0.34,VWS V15.00,2013-04-15 17:30:00,
2013-04-15 13:35:00,38.6,37.0,29.80,South,180,7.0,21.0,94,0.04,,---,0.34,VWS V14.01,2013-04-15 17:35:00,
2013-04-15 13:40:00,38.6,37.0,29.81,SSE,156,4.0,21.0,94,0.04,,---,0.34,VWS V14.01,2013-04-15 17:40:00,
2013-04-15 13:44:00,38.8,37.0,29.81,SSE,158,6.0,21.0,93,0.04,,---,0.34,VWS V14.01,2013-04-15 17:44:00,
2013-04-15 13:50:00,38.9,37.0,29.81,South,172,13.0,21.0,93,0.04,,---,0.34,VWS V14.01,2013-04-15 17:50:00,
2013-04-15 13:55:00,38.9,37.0,29.81,South,187,6.0,21.0,93,0.04,,---,0.34,VWS V14.01,2013-04-15 17:55:00,
2013-04-15 13:59:00,39.0,37.2,29.81,SSE,157,2.0,21.0,93,0.04,,---,0.34,VWS V14.01,2013-04-15 17:59:00,
2013-04-15 14:00:00,39.0,37.2,29.81,SSE,164,9.0,21.0,93,0.04,,---,0.34,VWS V15.00,2013-04-15 18:00:00,
2013-04-15 14:04:00,39.1,37.5,29.81,SSE,163,5.0,11.0,94,0.00,,---,0.34,VWS V14.01,2013-04-15 18:04:00,
2013-04-15 14:09:00,39.1,37.5,29.81,SSE,152,7.0,13.0,94,0.00,,---,0.34,VWS V14.01,2013-04-15 18:09:00,
2013-04-15 14:15:00,39.2,37.6,29.81,South,173,5.0,13.0,94,0.00,,---,0.34,VWS V14.01,2013-04-15 18:15:00,
2013-04-15 14:20:00,39.3,37.7,29.82,South,173,4.0,13.0,94,0.00,,---,0.34,VWS V14.01,2013-04-15 18:20:00,
2013-04-15 14:25:00,39.3,37.7,29.82,SSE,159,2.0,13.0,94,0.00,,---,0.34,VWS V14.01,2013-04-15 18:25:00,
2013-04-15 14:29:00,39.4,37.8,29.82,SE,146,4.0,13.0,94,0.00,,---,0.34,VWS V14.01,2013-04-15 18:29:00,
2013-04-15 14:30:00,39.5,37.9,29.82,SE,130,0.0,13.0,94,0.00,,---,0.34,VWS V15.00,2013-04-15 18:30:00,
2013-04-15 14:31:00,39.5,37.9,29.82,SE,130,1.0,13.0,94,0.00,,---,0.34,VWS V14.01,2013-04-15 18:31:00,
2013-04-15 14:36:00,39.6,38.0,29.83,SE,130,3.0,3.0,94,0.00,,---,0.34,VWS V14.01,2013-04-15 18:36:00,
2013-04-15 14:41:00,39.7,38.1,29.83,SE,125,3.0,6.0,94,0.00,,---,0.34,VWS V14.01,2013-04-15 18:41:00,
2013-04-15 14:46:00,39.8,38.2,29.83,SE,125,4.0,6.0,94,0.00,,---,0.34,VWS V14.01,2013-04-15 18:46:00,
2013-04-15 14:51:00,40.0,38.4,29.83,SE,127,0.0,6.0,94,0.00,,---,0.34,VWS V14.01,2013-04-15 18:51:00,
2013-04-15 14:56:00,40.0,38.4,29.83,SSE,161,3.0,6.0,94,0.00,,---,0.34,VWS V14.01,2013-04-15 18:56:00,
2013-04-15 15:00:00,40.1,38.5,29.83,SSE,155,2.0,6.0,94,0.00,,---,0.34,VWS V15.00,2013-04-15 19:00:00,
2013-04-15 15:01:00,40.1,38.5,29.83,SSE,158,3.0,3.0,94,0.00,,---,0.34,VWS V14.01,2013-04-15 19:01:00,
2013-04-15 15:07:00,40.3,38.7,29.83,SSE,156,5.0,7.0,94,0.00,,---,0.34,VWS V14.01,2013-04-15 19:07:00,
2013-04-15 15:12:00,40.5,38.9,29.83,SE,144,2.0,8.0,94,0.00,,---,0.34,VWS V14.01,2013-04-15 19:12:00,
2013-04-15 15:17:00,40.7,39.1,29.83,SE,144,1.0,8.0,94,0.00,,---,0.34,VWS V14.01,2013-04-15 19:17:00,
2013-04-15 15:22:00,40.6,39.0,29.81,ESE,105,5.0,9.0,94,0.00,,---,0.34,VWS V14.01,2013-04-15 19:22:00,
2013-04-15 15:27:00,40.8,39.5,29.82,East,92,2.0,9.0,95,0.00,,---,0.34,VWS V14.01,2013-04-15 19:27:00,
2013-04-15 15:30:00,40.9,39.6,29.83,SE,140,3.0,9.0,95,0.00,,---,0.34,VWS V15.00,2013-04-15 19:30:00,
2013-04-15 15:32:00,41.2,39.9,29.83,SE,131,2.0,4.0,95,0.00,,---,0.34,VWS V14.01,2013-04-15 19:32:00,
2013-04-15 15:37:00,41.4,40.1,29.83,SE,138,1.0,6.0,95,0.00,,---,0.34,VWS V14.01,2013-04-15 19:37:00,
2013-04-15 15:42:00,41.5,40.2,29.83,SE,139,2.0,9.0,95,0.00,,---,0.34,VWS V14.01,2013-04-15 19:42:00,
2013-04-15 15:47:00,41.5,40.2,29.82,SSE,156,4.0,9.0,95,0.00,,---,0.34,VWS V14.01,2013-04-15 19:47:00,
2013-04-15 15:53:00,41.5,40.2,29.82,SE,133,2.0,9.0,95,0.00,,---,0.34,VWS V14.01,2013-04-15 19:53:00,
2013-04-15 15:57:00,41.6,40.3,29.82,SE,136,2.0,9.0,95,0.00,,---,0.34,VWS V14.01,2013-04-15 19:57:00,
2013-04-15 16:00:00,41.7,40.7,29.82,SE,132,1.0,9.0,96,0.00,,---,0.34,VWS V15.00,2013-04-15 20:00:00,
2013-04-15 16:02:00,41.7,40.7,29.82,ESE,121,3.0,4.0,96,0.00,,---,0.34,VWS V14.01,2013-04-15 20:02:00,
2013-04-15 16:03:00,41.7,40.7,29.82,ESE,121,5.0,5.0,96,0.00,,---,0.34,VWS V14.01,2013-04-15 20:03:00,
2013-04-15 16:08:00,41.8,40.8,29.82,SE,125,2.0,7.0,96,0.00,,---,0.34,VWS V14.01,2013-04-15 20:08:00,
2013-04-15 16:14:00,41.7,40.7,29.82,ESE,120,0.0,7.0,96,0.00,,---,0.34,VWS V14.01,2013-04-15 20:14:00,
2013-04-15 16:19:00,41.5,40.5,29.82,ESE,116,0.0,7.0,96,0.00,,---,0.34,VWS V14.01,2013-04-15 20:19:00,
2013-04-15 16:24:00,41.4,40.3,29.82,SSE,147,2.0,7.0,96,0.00,,---,0.34,VWS V14.01,2013-04-15 20:24:00,
2013-04-15 16:29:00,41.2,40.2,29.82,ESE,119,0.0,7.0,96,0.00,,---,0.34,VWS V14.01,2013-04-15 20:29:00,
2013-04-15 16:30:00,41.1,40.0,29.82,SSE,148,3.0,7.0,96,0.00,,---,0.34,VWS V15.00,2013-04-15 20:30:00,
2013-04-15 16:34:00,41.0,40.0,29.81,ESE,117,2.0,8.0,96,0.00,,---,0.34,VWS V14.01,2013-04-15 20:34:00,
2013-04-15 16:39:00,40.9,39.8,29.82,SE,141,2.0,8.0,96,0.00,,---,0.34,VWS V14.01,2013-04-15 20:39:00,
2013-04-15 16:44:00,40.9,39.8,29.81,ESE,119,3.0,8.0,96,0.00,,---,0.34,VWS V14.01,2013-04-15 20:44:00,
2013-04-15 16:49:00,40.9,39.8,29.81,ESE,122,2.0,10.0,96,0.00,,---,0.34,VWS V14.01,2013-04-15 20:49:00,
2013-04-15 16:54:00,40.9,39.8,29.81,SE,125,1.0,10.0,96,0.00,,---,0.34,VWS V14.01,2013-04-15 20:54:00,
2013-04-15 16:59:00,41.0,40.0,29.81,SE,124,6.0,10.0,96,0.00,,---,0.34,VWS V14.01,2013-04-15 20:59:00,
2013-04-15 17:00:00,41.1,40.3,29.81,ESE,122,3.0,10.0,97,0.00,,---,0.34,VWS V15.00,2013-04-15 21:00:00,
2013-04-15 17:04:00,41.1,40.3,29.81,SE,126,3.0,7.0,97,0.00,,---,0.34,VWS V14.01,2013-04-15 21:04:00,
2013-04-15 17:09:00,41.3,40.5,29.81,SE,125,2.0,7.0,97,0.00,,---,0.34,VWS V14.01,2013-04-15 21:09:00,
2013-04-15 17:14:00,41.4,40.6,29.82,ESE,120,0.0,7.0,97,0.00,,---,0.34,VWS V14.01,2013-04-15 21:14:00,
2013-04-15 17:19:00,41.5,40.5,29.82,ESE,123,1.0,8.0,96,0.00,,---,0.34,VWS V14.01,2013-04-15 21:19:00,
2013-04-15 17:24:00,41.6,40.5,29.82,ESE,109,9.0,9.0,96,0.00,,---,0.34,VWS V14.01,2013-04-15 21:24:00,
2013-04-15 17:29:00,41.6,40.5,29.81,ESE,111,6.0,13.0,96,0.00,,---,0.34,VWS V14.01,2013-04-15 21:29:00,
2013-04-15 17:30:00,41.6,40.5,29.81,ESE,113,8.0,13.0,96,0.00,,---,0.34,VWS V15.00,2013-04-15 21:30:00,
2013-04-15 17:34:00,41.6,40.5,29.82,ESE,112,11.0,11.0,96,0.00,,---,0.34,VWS V14.01,2013-04-15 21:34:00,
2013-04-15 17:39:00,41.6,40.5,29.82,ESE,117,7.0,11.0,96,0.00,,---,0.34,VWS V14.01,2013-04-15 21:39:00,
2013-04-15 17:44:00,41.4,40.3,29.81,ESE,121,11.0,13.0,96,0.00,,---,0.34,VWS V14.01,2013-04-15 21:44:00,
2013-04-15 17:49:00,41.2,40.2,29.81,ESE,121,7.0,13.0,96,0.00,,---,0.34,VWS V14.01,2013-04-15 21:49:00,
2013-04-15 17:54:00,41.0,40.0,29.82,ESE,118,4.0,13.0,96,0.00,,---,0.34,VWS V14.01,2013-04-15 21:54:00,
2013-04-15 17:59:00,40.8,39.5,29.82,SE,136,5.0,13.0,95,0.00,,---,0.34,VWS V14.01,2013-04-15 21:59:00,
2013-04-15 18:00:00,40.6,39.3,29.82,ESE,119,6.0,13.0,95,0.00,,---,0.34,VWS V15.00,2013-04-15 22:00:00,
2013-04-15 18:04:00,40.4,39.1,29.82,ESE,117,3.0,9.0,95,0.00,,---,0.34,VWS V14.01,2013-04-15 22:04:00,
2013-04-15 18:09:00,40.2,38.9,29.81,ESE,117,10.0,13.0,95,0.00,,---,0.34,VWS V14.01,2013-04-15 22:09:00,
2013-04-15 18:14:00,40.0,38.7,29.81,ESE,110,11.0,14.0,95,0.00,,---,0.34,VWS V14.01,2013-04-15 22:14:00,
2013-04-15 18:19:00,40.0,38.7,29.81,ESE,106,7.0,14.0,95,0.01,,---,0.35,VWS V14.01,2013-04-15 22:19:00,
2013-04-15 18:24:00,40.0,38.7,29.80,ESE,119,6.0,14.0,95,0.01,,---,0.35,VWS V14.01,2013-04-15 22:24:00,
2013-04-15 18:29:00,40.0,39.0,29.80,ESE,112,6.0,14.0,96,0.01,,---,0.35,VWS V14.01,2013-04-15 22:29:00,
2013-04-15 18:30:00,40.1,39.0,29.80,ESE,114,5.0,14.0,96,0.01,,---,0.35,VWS V15.00,2013-04-15 22:30:00,
2013-04-15 18:34:00,40.1,39.0,29.80,ESE,118,7.0,8.0,96,0.01,,---,0.35,VWS V14.01,2013-04-15 22:34:00,
2013-04-15 18:39:00,40.1,39.0,29.80,ESE,110,7.0,10.0,96,0.01,,---,0.35,VWS V14.01,2013-04-15 22:39:00,
2013-04-15 18:44:00,40.1,39.0,29.81,ESE,114,5.0,10.0,96,0.01,,---,0.35,VWS V14.01,2013-04-15 22:44:00,
2013-04-15 18:49:00,40.0,39.0,29.80,ESE,115,7.0,10.0,96,0.01,,---,0.35,VWS V14.01,2013-04-15 22:49:00,
2013-04-15 18:54:00,40.0,39.0,29.80,ESE,116,5.0,10.0,96,0.01,,---,0.35,VWS V14.01,2013-04-15 22:54:00,
2013-04-15 18:59:00,40.1,39.0,29.80,ESE,122,3.0,10.0,96,0.01,,---,0.35,VWS V14.01,2013-04-15 22:59:00,
2013-04-15 19:00:00,40.1,39.0,29.80,ESE,111,6.0,10.0,96,0.01,,---,0.35,VWS V15.00,2013-04-15 23:00:00,
2013-04-15 19:04:00,40.0,39.0,29.80,ESE,112,2.0,7.0,96,0.01,,---,0.35,VWS V14.01,2013-04-15 23:04:00,
2013-04-15 19:09:00,40.0,39.0,29.79,ESE,114,10.0,10.0,96,0.01,,---,0.35,VWS V14.01,2013-04-15 23:09:00,
2013-04-15 19:14:00,40.0,39.0,29.81,SSE,150,2.0,10.0,96,0.01,,---,0.35,VWS V14.01,2013-04-15 23:14:00,
2013-04-15 19:19:00,39.9,38.8,29.81,ESE,115,2.0,10.0,96,0.01,,---,0.35,VWS V14.01,2013-04-15 23:19:00,
2013-04-15 19:24:00,39.8,38.8,29.81,SE,127,2.0,10.0,96,0.01,,---,0.35,VWS V14.01,2013-04-15 23:24:00,
2013-04-15 19:29:00,39.7,38.7,29.81,ESE,113,0.0,10.0,96,0.01,,---,0.35,VWS V14.01,2013-04-15 23:29:00,
2013-04-15 19:30:00,39.7,38.7,29.81,ESE,114,7.0,10.0,96,0.01,,---,0.35,VWS V15.00,2013-04-15 23:30:00,
2013-04-15 19:34:00,39.6,38.6,29.81,ESE,117,3.0,8.0,96,0.00,,---,0.35,VWS V14.01,2013-04-15 23:34:00,
2013-04-15 19:39:00,39.5,38.5,29.80,ESE,115,8.0,8.0,96,0.00,,---,0.35,VWS V14.01,2013-04-15 23:39:00,
2013-04-15 19:44:00,39.5,38.7,29.79,ESE,118,7.0,10.0,97,0.00,,---,0.35,VWS V14.01,2013-04-15 23:44:00,
2013-04-15 19:49:00,39.5,38.7,29.80,ESE,114,4.0,10.0,97,0.00,,---,0.35,VWS V14.01,2013-04-15 23:49:00,
2013-04-15 19:54:00,39.4,38.6,29.80,SE,132,3.0,10.0,97,0.00,,---,0.35,VWS V14.01,2013-04-15 23:54:00,
2013-04-15 19:59:00,39.3,38.5,29.81,ESE,122,1.0,10.0,97,0.00,,---,0.35,VWS V14.01,2013-04-15 23:59:00,
2013-04-15 20:00:00,39.3,38.5,29.81,ESE,122,0.0,10.0,97,0.00,,---,0.35,VWS V15.00,2013-04-16 00:00:00,
2013-04-15 20:04:00,39.3,38.5,29.81,ESE,121,1.0,4.0,97,0.00,,---,0.35,VWS V14.01,2013-04-16 00:04:00,
2013-04-15 20:09:00,39.3,38.5,29.80,ESE,116,6.0,7.0,97,0.00,,---,0.35,VWS V14.01,2013-04-16 00:09:00,
2013-04-15 20:14:00,39.1,38.3,29.81,ESE,113,0.0,7.0,97,0.00,,---,0.35,VWS V14.01,2013-04-16 00:14:00,
2013-04-15 20:19:00,39.1,38.3,29.81,ESE,115,5.0,7.0,97,0.00,,---,0.35,VWS V14.01,2013-04-16 00:19:00,
2013-04-15 20:24:00,39.1,38.3,29.81,ESE,105,4.0,7.0,97,0.00,,---,0.35,VWS V14.01,2013-04-16 00:24:00,
2013-04-15 20:29:00,39.0,38.2,29.82,ESE,119,0.0,7.0,97,0.00,,---,0.35,VWS V14.01,2013-04-16 00:29:00,
2013-04-15 20:30:00,39.0,38.2,29.82,ESE,119,0.0,7.0,97,0.00,,---,0.35,VWS V15.00,2013-04-16 00:30:00,
2013-04-15 20:34:00,39.0,38.2,29.82,ESE,119,0.0,3.0,97,0.01,,---,0.36,VWS V14.01,2013-04-16 00:34:00,
2013-04-15 20:39:00,39.0,38.2,29.82,ESE,120,1.0,3.0,97,0.01,,---,0.36,VWS V14.01,2013-04-16 00:39:00,
2013-04-15 20:44:00,39.0,38.2,29.81,ESE,119,0.0,3.0,97,0.01,,---,0.36,VWS V14.01,2013-04-16 00:44:00,
2013-04-15 20:49:00,39.0,38.2,29.81,ESE,119,1.0,3.0,97,0.01,,---,0.36,VWS V14.01,2013-04-16 00:49:00,
2013-04-15 20:54:00,39.1,38.3,29.82,ESE,119,0.0,4.0,97,0.01,,---,0.36,VWS V14.01,2013-04-16 00:54:00,
2013-04-15 20:59:00,39.1,38.3,29.82,SE,144,0.0,4.0,97,0.01,,---,0.36,VWS V14.01,2013-04-16 00:59:00,
2013-04-15 21:00:00,39.1,38.3,29.82,SE,146,0.0,4.0,97,0.02,,---,0.37,VWS V15.00,2013-04-16 01:00:00,
2013-04-15 21:04:00,39.1,38.3,29.82,SSE,152,1.0,3.0,97,0.02,,---,0.37,VWS V14.01,2013-04-16 01:04:00,
2013-04-15 21:09:00,39.9,39.1,29.82,SSE,154,6.0,7.0,97,0.02,,---,0.37,VWS V14.01,2013-04-16 01:09:00,
2013-04-15 21:14:00,41.1,40.3,29.82,SSE,167,7.0,9.0,97,0.03,,---,0.38,VWS V14.01,2013-04-16 01:14:00,
2013-04-15 21:19:00,41.8,41.3,29.81,South,177,7.0,10.0,98,0.04,,---,0.39,VWS V14.01,2013-04-16 01:19:00,
2013-04-15 21:24:00,42.4,41.9,29.81,South,170,7.0,12.0,98,0.05,,---,0.40,VWS V14.01,2013-04-16 01:24:00,
2013-04-15 21:29:00,43.3,42.8,29.81,SSE,168,7.0,13.0,98,0.05,,---,0.40,VWS V14.01,2013-04-16 01:29:00,
2013-04-15 21:30:00,43.6,43.1,29.81,South,181,12.0,13.0,98,0.05,,---,0.40,VWS V15.00,2013-04-16 01:30:00,
2013-04-15 21:34:00,44.0,43.5,29.80,South,179,10.0,12.0,98,0.05,,---,0.40,VWS V14.01,2013-04-16 01:34:00,
2013-04-15 21:39:00,44.4,43.9,29.80,South,175,8.0,12.0,98,0.05,,---,0.40,VWS V14.01,2013-04-16 01:39:00,
2013-04-15 21:45:00,44.6,44.1,29.80,South,176,7.0,12.0,98,0.05,,---,0.40,VWS V14.01,2013-04-16 01:45:00,
2013-04-15 21:50:00,44.9,44.4,29.80,South,179,5.0,13.0,98,0.05,,---,0.40,VWS V14.01,2013-04-16 01:50:00,
2013-04-15 21:55:00,45.2,44.7,29.80,South,179,6.0,13.0,98,0.05,,---,0.40,VWS V14.01,2013-04-16 01:55:00,
2013-04-15 22:00:00,45.4,44.9,29.80,South,181,6.0,13.0,98,0.05,,---,0.40,VWS V14.01,2013-04-16 02:00:00,
2013-04-15 22:05:00,45.5,45.0,29.80,South,179,5.0,11.0,98,0.03,,---,0.40,VWS V14.01,2013-04-16 02:05:00,
2013-04-15 22:10:00,45.6,45.1,29.81,South,183,10.0,11.0,98,0.03,,---,0.40,VWS V14.01,2013-04-16 02:10:00,
2013-04-15 22:15:00,45.7,45.2,29.80,South,191,6.0,11.0,98,0.03,,---,0.40,VWS V14.01,2013-04-16 02:15:00,
2013-04-15 22:20:00,46.2,45.7,29.80,SSW,199,7.0,13.0,98,0.03,,---,0.40,VWS V14.01,2013-04-16 02:20:00,
2013-04-15 22:25:00,46.9,46.4,29.80,SSW,192,8.0,14.0,98,0.03,,---,0.40,VWS V14.01,2013-04-16 02:25:00,
2013-04-15 22:30:00,47.0,46.5,29.79,SSW,209,6.0,15.0,98,0.03,,---,0.40,VWS V14.01,2013-04-16 02:30:00,
2013-04-15 22:35:00,47.1,46.6,29.80,SSW,200,8.0,11.0,98,0.00,,---,0.40,VWS V14.01,2013-04-16 02:35:00,
2013-04-15 22:40:00,46.9,46.4,29.80,SSW,204,11.0,11.0,98,0.00,,---,0.40,VWS V14.01,2013-04-16 02:40:00,
2013-04-15 22:45:00,46.7,45.9,29.80,South,189,11.0,13.0,97,0.00,,---,0.40,VWS V14.01,2013-04-16 02:45:00,
2013-04-15 22:50:00,46.7,45.9,29.80,SSW,200,8.0,13.0,97,0.00,,---,0.40,VWS V14.01,2013-04-16 02:50:00,
2013-04-15 22:55:00,46.7,45.9,29.80,SSW,204,9.0,14.0,97,0.00,,---,0.40,VWS V14.01,2013-04-16 02:55:00,
2013-04-15 23:00:00,46.5,45.4,29.80,SW,217,11.0,14.0,96,0.00,,---,0.40,VWS V14.01,2013-04-16 03:00:00,
2013-04-15 23:05:00,46.3,45.2,29.80,SW,228,9.0,12.0,96,0.00,,---,0.40,VWS V14.01,2013-04-16 03:05:00,
2013-04-15 23:10:00,46.0,44.9,29.79,SW,232,6.0,12.0,96,0.00,,---,0.40,VWS V14.01,2013-04-16 03:10:00,
2013-04-15 23:15:00,45.9,44.8,29.79,WSW,239,6.0,12.0,96,0.00,,---,0.40,VWS V14.01,2013-04-16 03:15:00,
2013-04-15 23:20:00,45.8,44.7,29.79,WSW,239,10.0,12.0,96,0.00,,---,0.40,VWS V14.01,2013-04-16 03:20:00,
2013-04-15 23:25:00,45.9,44.8,29.79,WSW,241,9.0,12.0,96,0.00,,---,0.40,VWS V14.01,2013-04-16 03:25:00,
2013-04-15 23:30:00,46.0,44.7,29.80,WSW,245,8.0,12.0,95,0.00,,---,0.40,VWS V14.01,2013-04-16 03:30:00,
2013-04-15 23:35:00,45.9,44.5,29.80,WSW,246,6.0,11.0,95,0.00,,---,0.40,VWS V14.01,2013-04-16 03:35:00,
2013-04-15 23:40:00,45.7,44.3,29.79,WSW,246,9.0,11.0,95,0.00,,---,0.40,VWS V14.01,2013-04-16 03:40:00,
2013-04-15 23:45:00,45.6,44.2,29.79,WSW,254,6.0,11.0,95,0.00,,---,0.40,VWS V14.01,2013-04-16 03:45:00,
2013-04-15 23:50:00,45.6,44.2,29.79,WSW,246,8.0,12.0,95,0.00,,---,0.40,VWS V14.01,2013-04-16 03:50:00,
2013-04-15 23:55:00,45.6,44.2,29.79,WSW,245,10.0,13.0,95,0.00,,---,0.40,VWS V14.01,2013-04-16 03:55:00,